Weather History for KCPS - March, 2013

Change the Weather History Date:

Tuesday, March 19, 2013

  Actual Average (KSTL) Record (KSTL)
Temperature  
Mean Temperature 38 °F 47 °F  
Max Temperature 46 °F 57 °F 84 °F (1907)
Min Temperature 30 °F 38 °F 4 °F (1923)
Degree Days  
Heating Degree Days 27 18  
Month to date heating degree days 401  
Since 1 July heating degree days 3999  
Cooling Degree Days 0 0  
Month to date cooling degree days 0  
Year to date cooling degree days 0  
Moisture  
Dew Point 17 °F    
Average Humidity 43    
Maximum Humidity 64    
Minimum Humidity 23    
Precipitation  
Precipitation 0.00 in 0.11 in 1.58 in (1926)
Month to date precipitation 1.87  
Year to date precipitation 6.51  
Snow  
Snow 0.00 in 0.10 in 9.10 in (1906)
Month to date snowfall 1.8  
Since 1 July snowfall 16.8  
Snow Depth -    
Sea Level Pressure  
Sea Level Pressure 30.17 in    
Wind  
Wind Speed 8 mph (WNW)    
Max Wind Speed 15 mph    
Max Gust Speed 23 mph    
Visibility 10 miles    
Events      
T = Trace of Precipitation, MM = Missing Value Source: NWS Daily Summary

Daily Weather History Graph

Daily Weather History Graph

Search for Another Location

Airport or City:

Trip Planner

Search our weather history database for the weather conditions in past years. The results will help you decide how hot, cold, wet, or windy it might be!

Date:

Astronomy

Mar. 19, 2013 Rise Set
Actual Time 7:05 AM CDT 7:11 PM CDT
Civil Twilight 6:38 AM CDT 7:38 PM CDT
Nautical Twilight 6:07 AM CDT 8:09 PM CDT
Astronomical Twilight 5:36 AM CDT 8:40 PM CDT
Moon 11:59 AM CDT (3/19) 1:55 AM CDT (3/19)
Length of Visible Light 12h 59m
Length of Day
12h 06m
Waxing Crescent, 50% of the Moon is Illuminated
Mar 19
Waxing Crescent
Mar 19
First Quarter
Mar 27
Full
Apr 2
Last Quarter
Apr 10
New

Hourly Weather History & Observations

Time (CDT) Temp. Windchill Dew Point Humidity Pressure Visibility Wind Dir Wind Speed Gust Speed Precip Events Conditions
1:53 AM 34.0 °F 26.6 °F 19.9 °F 56% 30.06 in 10.0 mi NW 9.2 mph - N/A   Clear
2:53 AM 32.0 °F 24.8 °F 19.9 °F 61% 30.07 in 10.0 mi NW 8.1 mph - N/A   Clear
3:53 AM 32.0 °F 26.4 °F 19.0 °F 59% 30.08 in 10.0 mi WSW 5.8 mph - N/A   Clear
4:53 AM 30.9 °F 26.2 °F 19.9 °F 64% 30.09 in 10.0 mi West 4.6 mph - N/A   Clear
5:53 AM 30.0 °F 24.1 °F 19.0 °F 64% 30.09 in 10.0 mi West 5.8 mph - N/A   Clear
6:53 AM 30.9 °F 25.2 °F 18.0 °F 59% 30.12 in 10.0 mi West 5.8 mph - N/A   Clear
7:53 AM 33.1 °F 25.5 °F 16.0 °F 50% 30.13 in 10.0 mi WNW 9.2 mph 17.3 mph N/A   Clear
8:53 AM 34.0 °F 25.0 °F 15.1 °F 46% 30.15 in 10.0 mi WNW 12.7 mph 23.0 mph N/A   Clear
9:53 AM 36.0 °F 27.1 °F 15.1 °F 43% 30.20 in 10.0 mi WNW 13.8 mph - N/A   Clear
10:53 AM 39.0 °F 30.6 °F 16.0 °F 39% 30.22 in 10.0 mi WNW 15.0 mph 19.6 mph N/A   Clear
11:53 AM 41.0 °F 36.4 °F 16.0 °F 36% 30.22 in 10.0 mi West 6.9 mph - N/A   Clear
12:53 PM 44.1 °F 38.1 °F 18.0 °F 35% 30.23 in 10.0 mi WNW 11.5 mph - N/A   Clear
1:53 PM 45.0 °F 39.7 °F 17.1 °F 33% 30.22 in 10.0 mi NNW 10.4 mph - N/A   Clear
2:53 PM 46.0 °F 41.9 °F 14.0 °F 28% 30.20 in 10.0 mi NNW 8.1 mph - N/A   Clear
3:53 PM 46.9 °F - 14.0 °F 27% 30.19 in 10.0 mi NW 12.7 mph - N/A   Partly Cloudy
4:53 PM 46.9 °F - 10.9 °F 23% 30.20 in 10.0 mi North 3.5 mph - N/A   Overcast
5:53 PM 46.0 °F 43.9 °F 15.1 °F 29% 30.21 in 10.0 mi WNW 4.6 mph - N/A   Overcast
6:53 PM 44.1 °F - 15.1 °F 31% 30.21 in 10.0 mi Calm Calm - N/A   Mostly Cloudy
7:53 PM 41.0 °F 37.1 °F 16.0 °F 36% 30.21 in 10.0 mi WNW 5.8 mph - N/A   Scattered Clouds
8:53 PM 41.0 °F - 14.0 °F 33% 30.20 in 10.0 mi Calm Calm - N/A   Clear
9:53 PM 35.1 °F 32.2 °F 19.0 °F 52% 30.21 in 10.0 mi WSW 3.5 mph - N/A   Clear
10:53 PM 37.0 °F 33.3 °F 18.0 °F 46% 30.21 in 10.0 mi WSW 4.6 mph - N/A   Clear
11:53 PM 37.0 °F - 19.0 °F 48% 30.21 in 10.0 mi North - - N/A   Clear